カタログに戻る

CZ-3C DEB

運用中GTO
NORAD 40196·DEBRIS·🇨🇳 China

打ち上げ Feb 24, 2012 から Xichang Satellite Launch Center

Loading…

TLE

古いSource: Space-Track

元期: Sep 12, 2026, 23:05 UTC

1 40196U 12008F   26255.96188430 -.00000028  00000-0  11934-2 0  9991
2 40196  21.3891 181.1345 7055541 153.3271 274.1721  2.38487251111207

AllMySatでCZ-3C DEBをリアルタイム追跡

Download on the App Store